Juliana Airport, Sint Maarten

5:56 PM AST on May 26, 2017 (GMT -0400)
Princess Juliana International

Weather History for TNCM - October, 2012

Change the Weather History Date:

Wednesday, October 17, 2012

  Actual Average Record
Temperature  
Mean Temperature 83 °F -  
Max Temperature 86 °F 85 °F 91 °F (2000)
Min Temperature 80 °F 75 °F 75 °F (2000)
Cooling Degree Days 18    
Growing Degree Days 33 (Base 50)    
Moisture  
Dew Point 76 °F    
Average Humidity 79    
Maximum Humidity 89    
Minimum Humidity 69    
Precipitation  
Precipitation 0.04 in 0.16 in - ()
Sea Level Pressure  
Sea Level Pressure 29.90 in    
Wind  
Wind Speed 7 mph ()    
Max Wind Speed 12 mph    
Max Gust Speed -    
Visibility 7.6 miles    
Events Rain , Thunderstorm    
Averages and records for this station are not official NWS values.
T = Trace of Precipitation, MM = Missing Value Source: Averaged Metar Reports

Daily Weather History Graph

Daily Weather History Graph

Search for Another Location

Airport or City:

Trip Planner

Search our weather history database for the weather conditions in past years. The results will help you decide how hot, cold, wet, or windy it might be!

Date:

Astronomy

Oct. 17, 2012 Rise Set
Actual Time 6:06 AM AST 5:48 PM AST
Civil Twilight 5:44 AM AST 6:10 PM AST
Nautical Twilight 5:19 AM AST 6:35 PM AST
Astronomical Twilight 4:53 AM AST 7:01 PM AST
Moon 8:11 AM AST (10/17) 7:46 PM AST (10/17)
Length of Visible Light 12h 25m
Length of Day
11h 41m
Waxing Crescent, 7% of the Moon is Illuminated
Oct 17
Waxing Crescent
Oct 21
First Quarter
Oct 29
Full
Nov 6
Last Quarter
Nov 13
New

Hourly Weather History & Observations

Time (AST) Temp. Heat Index Dew Point Humidity Pressure Visibility Wind Dir Wind Speed Gust Speed Precip Events Conditions
12:00 AM 82.4 °F 89.5 °F 75.2 °F 79% 29.86 in 6.2 mi SSW 9.2 mph - N/A   Partly Cloudy
1:00 AM 82.4 °F 89.5 °F 75.2 °F 79% 29.86 in 6.2 mi South 6.9 mph - N/A   Partly Cloudy
2:00 AM 82 °F - 75 °F 74% 29.87 in 22 mi South 8.1 mph - -   Scattered Clouds
2:00 AM 82.4 °F 89.5 °F 75.2 °F 79% 29.86 in 6.2 mi South 8.1 mph - N/A   Partly Cloudy
3:00 AM 82.4 °F 89.5 °F 75.2 °F 79% 29.86 in 6.2 mi South 4.6 mph - N/A   Partly Cloudy
4:00 AM 82.4 °F 90.9 °F 77.0 °F 84% 29.86 in 6.2 mi SSE 4.6 mph - N/A   Scattered Clouds
5:00 AM 82 °F - 77 °F 81% 29.86 in 7 mi SSE 5.8 mph - - Rain Light Rain Showers
5:00 AM 82.4 °F 90.9 °F 77.0 °F 84% 29.86 in 6.2 mi SSE 4.6 mph - N/A Rain Light Rain Showers
6:00 AM 82.4 °F 90.9 °F 77.0 °F 84% 29.89 in 6.2 mi SSE 6.9 mph - N/A   Partly Cloudy
7:00 AM 82.4 °F 89.5 °F 75.2 °F 79% 29.89 in 6.2 mi South 9.2 mph - N/A   Partly Cloudy
8:00 AM 84 °F - 76 °F 71% 29.92 in 22 mi South 6.9 mph - -   Partly Cloudy
8:00 AM 84.2 °F 92.3 °F 75.2 °F 74% 29.92 in 6.2 mi SSE 6.9 mph - N/A   Scattered Clouds
9:00 AM 84.2 °F 94.1 °F 77.0 °F 79% 29.92 in 6.2 mi SSE 9.2 mph - N/A   Scattered Clouds
10:00 AM 84.2 °F 94.1 °F 77.0 °F 79% 29.95 in 6.2 mi South 9.2 mph - N/A   Partly Cloudy
10:17 AM 84.2 °F 94.1 °F 77.0 °F 79% 29.95 in 6.2 mi South 9.2 mph - N/A   Scattered Clouds
11:00 AM 85 °F - 78 °F 73% 29.95 in 22 mi South 11.5 mph - - Thunderstorm Light Thunderstorm
11:00 AM 86.0 °F 96.9 °F 77.0 °F 74% 29.95 in 6.2 mi South 11.5 mph - N/A   Scattered Clouds
12:00 PM 86.0 °F 96.9 °F 77.0 °F 74% 29.92 in 6.2 mi SSE 10.4 mph - N/A   Partly Cloudy
1:00 PM 86.0 °F 96.9 °F 77.0 °F 74% 29.89 in 6.2 mi SSE 10.4 mph - N/A   Partly Cloudy
2:00 PM 86 °F - 77 °F 69% 29.89 in 25 mi SSE 6.9 mph - -   Partly Cloudy
2:00 PM 86.0 °F 96.9 °F 77.0 °F 74% 29.89 in 6.2 mi SSE 6.9 mph - N/A   Scattered Clouds
3:00 PM 86.0 °F 96.9 °F 77.0 °F 74% 29.89 in 6.2 mi SSE 9.2 mph - N/A   Scattered Clouds
4:00 PM 84.2 °F 94.1 °F 77.0 °F 79% 29.86 in 6.2 mi SSE 8.1 mph - N/A   Scattered Clouds
5:00 PM 83 °F - 76 °F 73% 29.89 in 19 mi SE 5.8 mph - -   Scattered Clouds
5:00 PM 82.4 °F 89.5 °F 75.2 °F 79% 29.89 in 6.2 mi SE 5.8 mph - N/A   Partly Cloudy
6:00 PM 82.4 °F 89.5 °F 75.2 °F 79% 29.89 in 6.2 mi SE 6.9 mph - N/A   Partly Cloudy
7:00 PM 82.4 °F 90.9 °F 77.0 °F 84% 29.89 in 6.2 mi ESE 4.6 mph - N/A   Partly Cloudy
8:00 PM 82 °F - 76 °F 78% 29.94 in 19 mi ESE 4.6 mph - -   Partly Cloudy
8:00 PM 82.4 °F 90.9 °F 77.0 °F 84% 29.92 in 6.2 mi ESE 4.6 mph - N/A   Scattered Clouds
9:00 PM 82.4 °F 90.9 °F 77.0 °F 84% 29.92 in 6.2 mi ESE 6.9 mph - N/A   Scattered Clouds
10:00 PM 80.6 °F 86.2 °F 75.2 °F 84% 29.95 in 6.2 mi East 1.2 mph - N/A   Scattered Clouds
11:00 PM 81 °F - 77 °F 83% 29.95 in 19 mi ESE 4.6 mph - -   Partly Cloudy
11:00 PM 80.6 °F 87.1 °F 77.0 °F 89% 29.95 in 6.2 mi Variable 3.5 mph - N/A   Partly Cloudy